Location: Ab? ar R?sh Ba?r?
(24.1861°N, 32.8847°E)
Time: 10:57:51
(UTC+00:00)

NOSS 2-2 (C) - Pass Details

Date: 24 October 2021
Orbit: 450 x 1755 km, 63.3° (Epoch: 01 December)

Event Time Altitude Azimuth Distance (km) Brightness Sun altitude
Rises 15:50:02 0° 187° (S) 2,877 7.2 -8.8°
Reaches altitude 10° 15:52:41 10° 177° (S) 1,822 6.0 -9.4°
Maximum altitude 15:56:06 29° 116° (ESE) 925 4.0 -10.2°
Enters shadow 15:58:31 14° 60° (ENE) 1,382 4.8 -10.7°
